Madison, WI

11:22 AM CST on November 18, 2019 (GMT -0600)
Dane County Regional-Truax

Weather History for KMSN - October, 2019

Change the Weather History Date:

Monday, October 21, 2019

  Actual Average Record
Temperature  
Mean Temperature 56 °F 47 °F  
Max Temperature 64 °F 57 °F 84 °F (1947)
Min Temperature 48 °F 37 °F 20 °F (1960)
Degree Days  
Heating Degree Days 9 18  
Month to date heating degree days 276 307  
Since 1 July heating degree days 333 515  
Cooling Degree Days 0 0  
Month to date cooling degree days 4 0  
Year to date cooling degree days 656 564  
Growing Degree Days 6 (Base 50)    
Moisture  
Dew Point 48 °F    
Average Humidity 70    
Maximum Humidity 93    
Minimum Humidity 46    
Precipitation  
Precipitation 0.34 in 0.08 in 1.04 in (1951)
Month to date precipitation 4.79 1.61  
Year to date precipitation 41.18 29.56  
Snow  
Snow 0.00 in 0.00 in 2.30 in (2006)
Month to date snowfall 0.0 0.2  
Since 1 July snowfall 0.0 0.2  
Since 1 September snowfall 0.0 0.2  
Snow Depth 0.00 in    
Sea Level Pressure  
Sea Level Pressure 29.44 in    
Wind  
Wind Speed 16 mph (SSE)    
Max Wind Speed 28 mph    
Max Gust Speed 37 mph    
Visibility 8 miles    
Events Rain    
T = Trace of Precipitation, MM = Missing Value Source: NWS Daily Summary

Daily Weather History Graph

Daily Weather History Graph

Search for Another Location

Airport or City:

Astronomy

Oct. 21, 2019 Rise Set
Actual Time 7:18 AM CDT 6:05 PM CDT
Civil Twilight 6:49 AM CDT 6:34 PM CDT
Nautical Twilight 6:15 AM CDT 7:07 PM CDT
Astronomical Twilight 5:43 AM CDT 7:40 PM CDT
Moon No Moon Rise 2:41 PM CDT (10/21)
Length of Visible Light 11h 45m
Length of Day
10h 47m
Waning Gibbous, 48% of the Moon is Illuminated
Oct 21
Waning Gibbous
Oct 27
New
Nov 4
First Quarter
Nov 12
Full
Nov 19
Last Quarter

Hourly Weather History & Observations

Time (CDT) Temp. Dew Point Humidity Pressure Visibility Wind Dir Wind Speed Gust Speed Precip Events Conditions
12:53 AM 50.0 °F 42.1 °F 74% 29.83 in 10.0 mi East 13.8 mph - N/A   Clear
1:53 AM 48.9 °F 44.1 °F 83% 29.81 in 10.0 mi ESE 11.5 mph - N/A   Mostly Cloudy
2:53 AM 48.0 °F 45.0 °F 89% 29.78 in 9.0 mi ESE 9.2 mph - N/A   Mostly Cloudy
3:18 AM 48.9 °F 46.0 °F 90% 29.77 in 9.0 mi ESE 9.2 mph - N/A   Overcast
3:53 AM 50.0 °F 46.0 °F 86% 29.74 in 8.0 mi ESE 9.2 mph - N/A   Overcast
4:53 AM 50.0 °F 46.0 °F 86% 29.69 in 10.0 mi ESE 15.0 mph - N/A   Overcast
5:53 AM 50.0 °F 46.9 °F 89% 29.65 in 10.0 mi ESE 13.8 mph - N/A   Mostly Cloudy
6:53 AM 53.1 °F 48.0 °F 83% 29.59 in 10.0 mi ESE 15.0 mph 21.9 mph N/A   Overcast
7:53 AM 55.0 °F 48.9 °F 80% 29.53 in 10.0 mi ESE 18.4 mph 26.5 mph N/A   Overcast
8:53 AM 55.0 °F 51.1 °F 86% 29.40 in 10.0 mi East 21.9 mph 32.2 mph 0.05 in Rain Light Rain
9:53 AM 55.9 °F 52.0 °F 87% 29.41 in 4.0 mi SE 19.6 mph 33.4 mph 0.02 in Rain Light Rain
10:26 AM 55.0 °F 52.0 °F 89% 29.37 in 2.5 mi ESE 20.7 mph - 0.07 in Rain Heavy Rain
10:35 AM 55.0 °F 52.0 °F 89% 29.36 in 3.0 mi ESE 19.6 mph 29.9 mph 0.08 in Rain Light Rain
10:48 AM 55.4 °F 53.6 °F 94% 29.33 in 3.0 mi ESE 15.0 mph 26.5 mph 0.11 in Rain Light Rain
10:53 AM 55.0 °F 53.1 °F 93% 29.33 in 2.0 mi SE 16.1 mph 26.5 mph 0.13 in Rain Heavy Rain
10:56 AM 55.0 °F 53.1 °F 93% 29.33 in 2.0 mi ESE 17.3 mph 26.5 mph 0.00 in Rain Rain
11:05 AM 55.0 °F 53.1 °F 93% 29.32 in 2.0 mi SE 15.0 mph 29.9 mph 0.03 in Rain Rain
11:11 AM 55.0 °F 53.1 °F 93% 29.32 in 2.0 mi SE 15.0 mph - 0.04 in Rain Rain
11:30 AM 55.9 °F 54.0 °F 93% 29.30 in 1.8 mi SSE 20.7 mph 31.1 mph 0.07 in Rain Light Rain
11:41 AM 57.0 °F 54.0 °F 89% 29.29 in 2.0 mi SE 26.5 mph 36.8 mph 0.09 in Rain Light Rain
11:53 AM 57.0 °F 55.0 °F 93% 29.30 in 2.0 mi SSE 23.0 mph 34.5 mph 0.09 in Rain Light Rain
12:14 PM 57.9 °F 55.0 °F 90% 29.29 in 10.0 mi South 23.0 mph 34.5 mph 0.03 in Rain Light Rain
12:53 PM 60.1 °F 57.0 °F 90% 29.29 in 10.0 mi South 15.0 mph 26.5 mph 0.04 in   Overcast
1:21 PM 61.0 °F 55.9 °F 83% 29.29 in 10.0 mi SSW 13.8 mph 25.3 mph 0.01 in   Mostly Cloudy
1:53 PM 63.0 °F 55.0 °F 75% 29.29 in 10.0 mi South 19.6 mph 32.2 mph 0.01 in   Mostly Cloudy
2:53 PM 64.0 °F 46.9 °F 54% 29.29 in 10.0 mi SSW 15.0 mph 31.1 mph N/A   Mostly Cloudy
3:53 PM 62.1 °F 46.0 °F 56% 29.31 in 10.0 mi SSW 13.8 mph 27.6 mph N/A   Mostly Cloudy
4:53 PM 60.1 °F 39.9 °F 47% 29.35 in 10.0 mi SW 20.7 mph 35.7 mph N/A   Mostly Cloudy
5:53 PM 57.0 °F 41.0 °F 55% 29.38 in 10.0 mi SW 13.8 mph 29.9 mph 0.00 in Rain Light Rain
6:53 PM 54.0 °F 43.0 °F 66% 29.40 in 10.0 mi SW 12.7 mph 20.7 mph 0.00 in   Overcast
7:53 PM 52.0 °F 39.0 °F 61% 29.43 in 10.0 mi SW 12.7 mph 26.5 mph N/A   Mostly Cloudy
8:53 PM 51.1 °F 37.9 °F 61% 29.42 in 10.0 mi SSW 10.4 mph 21.9 mph N/A   Overcast
9:53 PM 51.1 °F 37.9 °F 61% 29.41 in 10.0 mi SSW 16.1 mph 26.5 mph N/A   Mostly Cloudy
10:53 PM 51.1 °F 39.9 °F 66% 29.38 in 10.0 mi South 15.0 mph 26.5 mph N/A   Mostly Cloudy
11:53 PM 51.1 °F 39.9 °F 66% 29.35 in 10.0 mi South 17.3 mph 33.4 mph N/A   Overcast